Regional Weather Roundup
Issued by NWS

Home | Current Version | Previous Version | Text Only | Print | Product List | Glossary On
Versions: 1 2 3 4 5 6 7 8 9 10 11 12 13 14 15 16 17 18 19 20 21 22 23 24 25 26 27 28 29 30 31 32 33 34 35 36 37 38 39 40 41 42 43 44 45 46 47 48 49 50
000
ASUS43 KOAX 220410
RWRNE

WEATHER ROUNDUP FOR NEBRASKA
NATIONAL WEATHER SERVICE OMAHA NE
1100 PM CDT MON AUG 21 2017

NOTES: SATELLITE DATA IS BEING USED TO AUGMENT CLOUD COVER ABOVE
       12000 FEET.
       "FAIR" INDICATES FEW OR NO CLOUDS BELOW 12,000 FEET WITH NO
       SIGNIFICANT WEATHER AND/OR OBSTRUCTIONS TO VISIBILITY.


NEZ001>004-019>022-054>056-220500-
NEBRASKA PANHANDLE

CITY           SKY/WX    TMP DP  RH WIND       PRES   REMARKS
SCOTTSBLUFF    CLEAR     62  50  64 NE8       30.21R
ALLIANCE       CLEAR     57  48  72 N9        30.20R
CHADRON        CLEAR     59  46  62 W3        30.19R
GORDON         FAIR      58  46  64 NE6       30.20R
KIMBALL        CLEAR     60  46  60 NE5       30.27R
SIDNEY         CLEAR     64  50  60 NE7       30.23R
$$

NEZ057>060-069>072-079>082-220500-
SOUTHWEST NEBRASKA

CITY           SKY/WX    TMP DP  RH WIND       PRES   REMARKS
NORTH PLATTE   CLEAR     68  65  90 N6        30.10R
IMPERIAL       CLEAR     67  62  84 N9        30.13R
LEXINGTON      CLOUDY    74  65  74 NE9       30.07R
MCCOOK         CLEAR     74  66  76 N20G30    30.06R
OGALLALA       CLEAR     67  62  84 NE6       30.15R
$$

NEZ005>010-023>029-035>040-094-220500-
NORTH CENTRAL NEBRASKA

CITY           SKY/WX    TMP DP  RH WIND       PRES   REMARKS
VALENTINE      CLEAR     67  48  50 N9        30.14R
AINSWORTH      CLEAR     64  62  95 N6        30.12R
BROKEN BOW     CLEAR     70  65  84 N10       30.09R
O`NEILL        FOG       64  64 100 CALM      30.08R VSB 1
ORD            CLEAR     65  62  90 N6        30.07R
THEDFORD       CLEAR     66  61  82 N5        30.14R
$$

NEZ041-046>049-061>064-073>077-083>087-220500-
SOUTH CENTRAL NEBRASKA

CITY           SKY/WX    TMP DP  RH WIND       PRES   REMARKS
GRAND ISLAND   CLOUDY    69  66  90 NE10      30.05R
AURORA         CLOUDY    68  66  92 NE13G18   30.04R
HASTINGS       CLOUDY    70  65  84 NE18G24   30.04R
HEBRON         MOCLDY    73  71  93 CALM      29.95S
HOLDREGE       CLOUDY    72  65  78 N17G26    30.05R
KEARNEY        CLOUDY    70  66  87 NE14      30.06R
YORK           MOCLDY    68  64  88 NE15G21   30.03R
$$

NEZ011>018-030>034-042>045-220500-
NORTHEAST NEBRASKA

CITY           SKY/WX    TMP DP  RH WIND       PRES   REMARKS
NORFOLK        CLOUDY    64  64 100 N3        30.02S
ALBION         CLOUDY    65  64  96 NW3       30.05S
BLAIR          RAIN      65  64  96 NE3       29.98F
COLUMBUS       LGT RAIN  67  65  93 CALM      30.03S
FREMONT        CLOUDY    66  65  97 N3        29.99F
TEKAMAH        LGT RAIN  66  64  93 SW3       29.97F
WAYNE          FOG       63  61  91 NW6       30.01F VSB 1/4
$$

NEZ050>053-065>068-078-088>093-220500-
SOUTHEAST NEBRASKA

CITY           SKY/WX    TMP DP  RH WIND       PRES   REMARKS
LINCOLN        CLOUDY    68  64  87 NE17G31   30.00R
OMAHA EPPLEY   TSTM      67  63  87 SE7       30.00R
BEATRICE       MOCLDY    74  71  88 CALM      29.95R
FALLS CITY     CLOUDY    71  69  93 S8        29.93R
NEBRASKA CITY  LGT RAIN  75  75 100 SW3       29.94R
PLATTSMOUTH    TSTM      66  64  93 E8        30.03R
$$

NEZ044-045-051>053-067-220500-
OMAHA AREA

CITY           SKY/WX    TMP DP  RH WIND       PRES   REMARKS
OMAHA EPPLEY   TSTM      67  63  87 SE7       30.00R
BLAIR          RAIN      65  64  96 NE3       29.98F
FREMONT        CLOUDY    66  65  97 N3        29.99F
MILLARD        TSTM      68  66  94 CALM      30.00R
OFFUTT AFB     TSTM      66  64  94 NE6       30.00R
PLATTSMOUTH    TSTM      66  64  93 E8        30.03R
WAHOO          RAIN      67  66  97 N3        30.00S
$$



USA.gov is the U.S. government's official web portal to all federal, state and local government web resources and services.